一网星座-0582星 (ONEWEB-0582 )

导读 | 豆包AI

ONEWEB-0582是英国主导的OneWeb低轨宽带卫星星座的成员,于2022年12月8日发射入轨,服务全球卫星互联网组网。OneWeb星座依托低轨布局,具备广覆盖、低延迟、高带宽特性,既面向民航、海运等提供全球通信接入,也在军用通信、战场态势感知等领域具备应用潜力。ONEWEB-0582的入轨进一步完善了星座的覆盖密度,推进OneWeb全球宽带网络的部署进程。

基本信息
目录编号:
54649
目录名称:
ONEWEB-0582
国际标识:
2022-166H
轨道中心:
EARTH
卫星名称:
一网星座-0582星
卫星全名:
一网星座-0582星 (ONEWEB-0582 )
卫星状态:
在轨 (已飞行1239 天)
发射日期:
2022-12-08 UTC
国别 :
英国 (GB)
星等 :
--
轨道信息
数据来源 国际轨道数据
星历时间: 2026-04-30T09:32:09+0800
7小时前
查看轨道信息
半长轴: 7555.887km
偏心率: 0.0002237
轨道倾角: 87.922°
近地点辐角 109.204°
升交点赤经 253.554°
平近点角 250.934°
近地点: 1176.059km
远地点: 1179.441km
周期: 108.940分钟
每日圈数: 13.218269
详细信息
平衡模式:
三轴稳定
覆盖范围:
全球
运营商:
一网卫星公司
运营商所在国:
英国
制造商(研发单位):
一网卫星公司
制造商所在国:
英国
使用方式:
暂无
卫星简介
OneWeb卫星网络由648颗重约125公斤的微型卫星组成,运行在1200公里的轨道上。 每颗卫星都能够提供至少每秒8千兆位的吞吐量,以使用其高吞吐量的Ku频段有效载荷为家庭和移动平台提供互联网接入。该卫星仍在工作。
2D轨道图
3D轨道图
轨道高度分析图
轨道倾角分析图
轨道综合分析图
查看轨道综合分析图